Location: Cheching
(60.0667°N, 164.2167°W)
Time: 01:13:56
(UTC+00:00)

O/OREOS (USA 219) - Pass Details

Date: 17 January 2021
Orbit: 621 x 646 km, 72.0° (Epoch: 22 May)

Event Time Altitude Azimuth Distance (km) Brightness Sun altitude
Rises 17:47:08 0° 159° (SSE) 2,953 ? -12.9°
Reaches altitude 10° 17:50:11 10° 138° (SE) 2,048 ? -12.6°
Maximum altitude 17:52:56 16° 101° (E) 1,693 ? -12.2°
Drops below altitude 10° 17:55:41 10° 64° (ENE) 2,056 ? -11.9°
Sets 17:58:44 0° 43° (NE) 2,969 ? -11.6°
